Location: Kailua
(21.4020°N, 157.7390°W)
Time: 05:33:36
(UTC-10:00)

Daily predictions for brighter satellites

Satellite Brightness Start Highest point End
(mag) Time Altitude Azimuth Time Altitude Azimuth Time Altitude Azimuth
SL-16 R/B 3.9 02:16:06 35° NE 02:16:06 35° NE 02:20:21 10° N
SeaSat 1 4.1 02:50:29 29° ENE 02:50:37 29° ENE 02:54:50 10° N
ATLAS 2AS CENTAUR R/B 2.9 02:57:24 84° NE 02:57:24 84° NE 03:05:10 10° NNE
Hubble Space Telescope 3.7 03:09:40 12° E 03:09:40 12° E 03:09:59 10° E
Cosmos 2074 Rocket 4.4 03:02:32 10° N 03:07:15 54° NNW 03:07:15 54° NNW
Cosmos 2184 Rocket 4.3 03:08:12 10° N 03:13:22 59° NNW 03:13:22 59° NNW
Cosmos 2154 Rocket 4.4 03:10:50 10° N 03:17:02 58° E 03:18:47 44° SE
CZ-2D R/B 4.1 03:13:35 10° NNW 03:15:06 17° NNW 03:15:06 17° NNW
Maqsat-H 4.3 02:46:04 10° W 03:23:31 40° S 03:28:50 10° SE
ARIANE 5 R/B 4.1 03:20:22 10° N 03:22:45 24° NNW 03:22:45 24° NNW
Cosmos 1610 Rocket 4.3 03:20:58 10° N 03:27:19 88° W 03:27:45 79° S
Meteor 2-21 4.2 03:24:46 10° N 03:30:50 84° W 03:30:58 83° SW
Cosmos 1844 Rocket 4.4 03:34:01 20° NW 03:34:01 20° NW 03:36:46 10° NNW
NOSS 3-4 (A) 4.3 03:31:11 34° SSE 03:32:54 41° ESE 03:38:38 10° NE
NOSS 3-4 (C) 4.4 03:31:15 33° SSE 03:33:01 40° ESE 03:38:45 10° NE
Resurs 1-4 Rocket 4.3 03:32:06 10° NW 03:32:59 13° NW 03:32:59 13° NW
Cosmos 2278 Rocket 2.1 03:43:09 68° W 03:43:15 68° WNW 03:48:53 10° N
Fermi 4.5 03:45:21 51° NNE 03:45:21 51° NNE 03:49:09 10° E
GPS 2-17 Rocket1 3.9 03:46:15 41° SE 03:46:15 41° SE 03:49:56 10° E
Meteor 2-14 Rocket 4.3 03:42:38 10° N 03:48:42 73° W 03:50:04 54° SSW
Cosmos 2228 Rocket 3.3 03:46:06 10° N 03:50:00 63° NW 03:50:00 63° NW
ADEOS II 2.1 03:49:49 10° N 03:54:58 58° WNW 03:55:17 57° W
Meteor 2-8 Rocket 4.4 03:56:21 50° SW 03:57:52 67° W 04:03:59 10° N
SL-16 R/B 4.3 04:01:11 15° WNW 04:01:11 15° WNW 04:02:41 10° NW
Lacrosse 5 2.1 03:57:20 49° S 03:58:27 64° ESE 04:03:28 10° NE
Cosmos 1515 Rocket 4.2 03:56:36 10° NNW 03:59:41 39° NW 03:59:41 39° NW
Cosmos 1869 3.3 04:00:49 10° N 04:04:20 65° NW 04:04:20 65° NW
Intelsat 5-3 Rocket 3.5 04:02:07 30° W 04:06:56 84° N 04:11:13 10° E
GP-B 3.0 04:02:48 10° N 04:07:10 61° W 04:07:29 59° WSW
Cosmos 1302 Rocket 3.9 04:03:57 10° NNW 04:09:14 75° WSW 04:13:42 15° S
PSLV R/B 3.5 04:05:14 10° NNE 04:09:32 82° ESE 04:10:58 42° S
Cosmos 1151 Rocket 4.1 04:07:56 10° NNW 04:10:45 30° WNW 04:10:45 30° WNW
Sakura Rocket 2.4 04:12:05 74° WNW 04:12:19 80° NNW 04:16:10 10° ENE
Sich 1 3.0 04:12:47 34° S 04:14:35 78° E 04:18:51 10° N
MOS 1-B 4.5 04:09:52 10° NNE 04:15:40 73° ESE 04:20:18 16° S
NOSS 2-2 (D) 3.7 04:14:42 36° S 04:16:00 54° ESE 04:19:46 10° NE
Okean O Rocket 3.3 04:13:38 10° NE 04:17:30 30° E 04:21:23 10° SSE
COSMOS 2406 3.1 04:21:34 10° NNW 04:27:18 67° WSW 04:32:58 10° S
SeaSat 1 4.1 04:30:13 16° WNW 04:30:13 16° WNW 04:31:44 10° WNW
Cosmos 2341 Rocket 4.4 04:28:31 10° NNW 04:34:20 42° W 04:39:05 15° SSW
SWIFT 2.9 04:36:26 29° SW 04:38:09 44° SSE 04:42:14 10° E
SL-8 Rocket 4.0 04:32:50 10° NNW 04:38:57 64° W 04:45:06 10° S
Cosmos 1190 Rocket 4.0 04:35:39 20° SSW 04:39:22 68° WNW 04:44:38 10° N
NOSS 2-2 (C) 3.3 04:39:39 28° SW 04:41:32 61° WNW 04:45:21 10° NNE
ATLAS 5 CENTAUR R/B 2.6 04:37:45 11° S 04:41:41 42° ESE 04:45:54 10° NE
Cosmos 405 Rocket 4.2 04:42:05 10° NW 04:44:17 19° W 04:44:17 19° W
Hubble Space Telescope 0.8 04:45:01 23° W 04:47:30 73° NNW 04:51:39 10° ENE
BREEZE-M R/B 3.8 04:36:00 14° SW 04:48:03 82° SE 04:52:04 10° NE
CZ-4B R/B 4.3 04:44:35 10° NNE 04:49:05 75° ESE 04:53:29 10° S
Cosmos 1933 3.4 04:45:43 10° N 04:49:44 82° E 04:53:44 10° S
Cosmos 2366 rocket 3.9 04:44:34 10° N 04:50:44 70° W 04:56:51 10° S
Meteor 2-3 Rocket 3.6 04:45:19 10° S 04:50:53 80° W 04:56:30 10° N
Cosmos 864 Rocket 4.5 04:47:21 10° N 04:53:38 70° W 04:59:52 10° S
Cosmos 1461 3.3 04:50:22 10° SSW 04:54:38 70° ESE 04:59:12 10° NNE
Cosmos 407 Rocket 3.8 04:50:53 16° SW 04:54:43 45° WNW 04:59:37 10° N
OAO 3 Rocket 4.2 04:51:48 14° SSW 04:55:21 36° SE 04:59:38 10° ENE
Cosmos 1992 Rocket 3.9 04:56:53 10° NNW 05:02:03 73° WSW 05:07:13 10° S
CZ-4B R/B 3.9 04:59:21 10° NNW 05:02:21 25° WNW 05:04:40 14° WSW
Cosmos 1241 Rocket 4.4 04:57:17 10° SSW 05:03:28 78° WNW 05:09:40 10° NNE
Meteor PRIRODA 3.7 05:00:27 10° N 05:04:07 61° WNW 05:07:46 10° SSW
RESURS DK-1 2.3 05:00:35 10° SSW 05:04:43 88° WNW 05:08:53 10° NNE
ASTEX 1 3.5 05:00:22 10° S 05:05:16 85° E 05:10:13 10° N
CZ-2C R/B 4.0 05:03:29 10° NE 05:07:52 35° E 05:12:22 10° SSE
Cosmos 1892 4.5 05:07:41 13° WSW 05:09:19 16° W 05:11:42 10° NW
SL-27 R/B 3.5 05:08:39 10° N 05:12:11 50° ENE 05:15:42 10° SSE
Cosmos 1470 Rocket 3.7 05:08:15 10° SSW 05:12:33 56° W 05:16:54 10° N
GPS 2-15 Rocket1 3.4 05:10:35 11° WSW 05:15:18 63° S 05:20:11 10° E
Cosmos 1707 Rocket 4.2 05:12:36 10° NNW 05:16:40 36° W 05:20:44 10° SSW
IRS-1C Rocket 4.1 05:11:56 10° NNE 05:17:13 89° WNW 05:22:30 10° SSW
Cosmos 1943 Rocket 4.0 05:13:03 10° SSE 05:17:46 30° ESE 05:22:30 10° NE
Aurora 2 Rocket 4.3 05:13:23 10° SW 05:18:00 24° SSE 05:21:33 10° ESE
Cosmos 614 Rocket 4.2 05:14:43 10° SSW 05:19:46 52° WNW 05:24:51 10° N
Meteor 1-28 Rocket 3.2 05:17:17 10° S 05:21:03 63° W 05:24:50 10° NNW
SL-8 R/B 4.4 05:20:57 10° SSW 05:25:36 52° SE 05:30:16 10° NE
IDEFIX/ARIANE 42P 2.6 05:20:40 10° N 05:25:55 79° WNW 05:31:10 10° SSW
ATLAS 2A CENTAUR R/B 3.8 05:29:50 10° WNW 05:59:54 77° SSW 06:05:29 10° ESE
